Location: River House Observatory
(37.8577°N, 76.3548°W)
Time: 11:39:11
(UTC-04:00)

NOSS 3-1 (C) - Visible Passes

Search period start: 26 May 2018 00:00
Search period end: 05 June 2018 00:00
Orbit: 804 x 1404 km, 63.4° (Epoch: 24 May)

Date Brightness Start Highest point End Pass type
(mag) Time Alt. Az. Time Alt. Az. Time Alt. Az.
26 May 3.3 01:56:13 78° NNW 01:56:13 78° NNW 02:02:14 10° NNE visible
26 May 5.5 03:44:14 10° WNW 03:47:59 17° NNW 03:52:02 10° N visible
27 May 3.9 01:12:01 49° ENE 01:12:01 49° ENE 01:16:49 10° NE visible
27 May 5.0 02:59:23 18° WNW 03:02:05 24° NW 03:07:14 10° NNE visible
28 May 4.7 00:27:46 26° ENE 00:27:46 26° ENE 00:31:05 10° NE visible
28 May 4.3 02:15:08 33° WNW 02:16:24 37° NW 02:22:16 10° NNE visible
28 May 5.4 23:43:28 14° ENE 23:43:28 14° ENE 23:44:44 10° ENE visible
29 May 3.6 01:30:50 60° WNW 01:30:54 60° NW 01:37:09 10° NNE visible
29 May 5.7 03:20:17 10° WNW 03:23:19 14° NNW 03:26:33 10° N visible
30 May 3.5 00:46:28 65° NE 00:46:28 65° NE 00:51:51 10° NE visible
30 May 5.4 02:33:49 12° WNW 02:37:20 20° NW 02:41:55 10° N visible
31 May 4.2 00:02:03 37° ENE 00:02:03 37° ENE 00:06:18 10° NE visible
31 May 4.8 01:49:25 24° WNW 01:51:31 29° NW 01:57:03 10° NNE visible
31 May 4.8 23:17:35 21° E 23:17:35 21° E 23:20:20 10° ENE visible
01 Jun 4.0 01:04:56 42° WNW 01:05:55 46° NW 01:12:00 10° NNE visible
01 Jun 6.0 02:56:40 10° NW 02:58:43 12° NNW 03:00:51 10° N visible
01 Jun 5.4 22:33:01 11° E 22:33:01 11° E 22:33:23 10° ENE visible
02 Jun 3.3 00:20:21 76° WNW 00:20:31 77° NW 00:26:48 10° NNE visible
02 Jun 5.7 02:08:58 10° WNW 02:12:37 16° NNW 02:16:32 10° N visible
02 Jun 3.3 23:35:40 61° E 23:35:40 61° E 23:41:24 10° NE visible
03 Jun 5.3 01:23:00 13° W 01:26:42 24° NW 01:31:46 10° NNE visible
03 Jun 4.0 22:50:52 34° E 22:50:52 34° E 22:55:42 10° NE visible
04 Jun 4.6 00:38:10 23° W 00:40:59 36° NW 00:46:49 10° NNE visible
04 Jun 4.6 22:05:52 19° E 22:05:52 19° E 22:09:26 10° ENE visible
